Wind_Speed
19 22 28 30 32 32 32 32 32 31 30 30 29 28 26 25 22 20 19 21 21 20 20 19 19 19 19 19 17 15 12 11
20 21 26 30 32 32 33 33 34 34 35 34 33 32 30 28 24 22 18 20 21 21 20 21 20 20 19 19 17 14 12 10
23 23 26 30 32 33 34 34 35 36 37 36 35 35 33 31 28 24 22 21 21 20 20 22 23 23 22 20 17 16 13 11
26 25 27 29 32 34 35 35 36 37 39 39 39 39 37 35 31 29 27 24 25 24 23 24 25 26 25 22 20 17 14 11
29 29 29 30 33 35 36 36 38 39 40 41 41 39 38 36 33 32 28 27 27 26 28 28 29 28 27 24 22 19 16 13
31 30 31 32 34 35 36 38 39 41 41 43 44 44 43 40 38 38 36 32 29 31 30 30 30 29 28 26 24 21 18 14
33 33 33 34 34 35 37 39 40 42 43 45 46 44 44 43 41 41 39 36 34 33 32 32 32 32 31 29 27 23 19 15
37 38 37 36 36 37 38 39 39 41 42 44 43 44 46 44 47 46 41 39 36 36 37 35 35 35 34 32 29 26 22 17
42 42 41 39 39 38 39 38 38 42 42 45 44 43 44 48 48 47 45 42 39 38 38 38 39 38 36 34 31 28 24 20
33 40 44 43 42 41 40 40 39 40 40 43 43 44 46 46 47 45 46 42 41 42 43 43 42 41 40 37 33 29 26 22
28 31 36 41 43 42 42 41 40 36 38 40 42 44 41 43 37 40 43 41 43 45 48 47 47 44 42 39 35 31 27 24
19 21 24 31 39 40 41 40 38 36 36 35 35 36 35 35 40 47 42 41 39 37 42 47 49 49 45 39 35 31 29 27
7 17 20 25 31 34 40 40 40 36 35 33 34 34 32 32 39 45 41 46 40 32 36 34 42 48 48 43 38 34 31 28
12 3 7 16 21 30 35 35 36 34 35 34 34 35 32 35 34 42 46 48 40 38 50 42 40 45 47 46 28 30 30 29
21 21 16 3 10 18 29 30 22 28 27 31 33 31 32 31 32 37 40 43 52 47 45 54 53 50 48 39 25 16 33 27
13 13 15 19 21 15 9 6 9 13 16 19 19 19 22 21 27 41 36 47 49 47 45 53 53 53 40 39 38 36 36 22
14 13 14 15 17 19 19 16 15 13 11 11 16 20 16 26 21 38 38 48 42 46 33 45 59 53 63 47 40 25 40 42
19 19 16 16 17 16 15 17 19 22 22 23 20 20 19 21 23 25 36 31 42 38 38 46 42 54 60 56 46 42 43 43
18 18 20 19 18 17 18 20 20 22 23 25 24 23 21 17 19 21 26 30 34 40 40 41 38 54 59 58 56 43 39 43
24 21 24 21 20 20 23 25 25 27 30 35 28 27 23 21 22 23 16 26 29 37 39 39 45 59 56 54 55 45 33 40
Wind_Direction
206 204 206 208 210 210 212 214 216 216 215 214 212 210 210 210 208 212 210 204 201 197 192 194 194 193 187 180 177 179 182 175
218 214 211 209 211 213 214 216 218 218 218 216 214 213 213 213 212 213 212 207 202 200 196 194 194 195 189 187 186 187 187 177
222 223 218 214 213 214 215 217 219 220 219 217 215 214 213 214 214 214 210 204 206 205 200 198 195 194 195 192 198 193 188 168
230 229 224 219 218 217 218 217 218 219 218 217 216 216 215 214 214 214 215 204 203 203 201 201 199 198 196 197 196 198 186 170
235 232 228 225 224 220 218 219 219 220 220 219 218 218 218 217 214 213 214 207 201 200 199 201 202 203 196 192 194 194 188 178
241 236 231 227 227 226 223 223 223 221 221 221 222 219 220 221 219 216 213 214 208 205 204 204 206 205 201 195 194 195 192 186
249 243 240 234 229 231 229 226 227 227 225 226 226 223 222 221 223 222 224 215 212 206 204 204 204 203 201 200 196 195 192 186
251 247 243 237 236 237 235 232 231 231 229 231 229 230 229 225 226 224 225 230 215 211 205 204 203 202 200 198 197 194 189 184
259 253 248 243 242 241 240 238 236 233 235 235 233 234 237 239 233 231 227 227 216 209 205 203 202 200 201 198 197 194 188 183
262 259 254 247 244 242 242 241 240 240 240 239 237 239 242 243 244 236 232 228 212 210 206 202 202 200 197 197 196 193 186 182
261 257 256 253 246 245 243 243 243 247 246 246 243 240 249 255 255 238 237 215 208 211 205 205 199 197 195 192 191 188 184 180
256 260 262 255 246 246 244 248 250 247 248 250 253 252 254 256 256 241 238 228 219 207 208 204 202 196 189 184 184 188 185 183
267 251 251 247 244 237 245 245 243 247 250 255 257 258 256 251 249 242 243 228 240 240 217 216 201 195 183 175 177 182 184 183
31 328 259 253 243 237 235 236 237 248 250 254 254 259 259 256 254 248 245 238 240 221 213 210 212 200 185 171 158 167 173 178
46 44 34 331 224 229 234 232 239 246 252 253 254 258 256 257 253 253 253 256 235 228 218 207 199 203 199 180 159 173 171 173
43 48 32 12 12 19 27 2 308 273 268 266 263 266 259 276 257 259 257 250 228 215 215 211 205 201 201 191 194 195 171 171
25 20 8 354 346 343 330 330 342 345 335 316 308 286 274 266 270 255 256 231 239 219 219 219 209 214 207 198 205 198 190 179
344 341 342 340 338 329 322 318 313 307 297 297 304 311 292 278 262 266 249 256 228 236 238 213 235 208 210 209 212 208 197 195
330 324 319 321 318 314 312 306 300 290 283 294 294 292 288 294 265 257 250 241 237 229 212 232 227 223 211 214 219 215 212 204
317 309 300 303 304 303 301 297 295 283 289 279 276 270 272 283 265 266 247 244 251 231 235 238 230 220 218 225 220 219 216 209
Height
1486 1489 1492 1495 1497 1500 1503 1506 1508 1511 1512 1514 1516 1519 1522 1525 1526 1527 1529 1532 1537 1539 1538 1541 1542 1545 1547 1546 1546 1547 1549 1549
1485 1486 1488 1491 1494 1497 1499 1502 1504 1505 1506 1508 1511 1515 1518 1521 1523 1524 1529 1534 1534 1536 1539 1539 1540 1544 1546 1549 1548 1548 1550 1549
1481 1482 1484 1486 1489 1492 1494 1496 1498 1500 1503 1505 1508 1510 1513 1516 1520 1522 1523 1527 1533 1537 1539 1539 1538 1540 1544 1546 1550 1550 1550 1549
1478 1479 1481 1483 1485 1488 1490 1493 1495 1497 1498 1500 1502 1504 1507 1511 1515 1517 1518 1519 1524 1528 1533 1538 1538 1538 1539 1544 1547 1550 1550 1550
1470 1472 1474 1476 1478 1481 1485 1488 1489 1492 1495 1497 1498 1503 1507 1509 1512 1514 1519 1519 1519 1523 1527 1532 1534 1535 1537 1540 1544 1547 1550 1549
1468 1469 1470 1472 1476 1478 1479 1482 1485 1487 1489 1491 1493 1495 1500 1505 1508 1508 1509 1515 1517 1517 1521 1526 1530 1532 1535 1536 1541 1543 1548 1549
1463 1464 1465 1467 1470 1472 1474 1475 1479 1482 1484 1485 1487 1493 1496 1499 1502 1505 1507 1509 1511 1511 1516 1520 1526 1528 1531 1533 1536 1540 1545 1548
1458 1459 1461 1462 1465 1467 1468 1470 1471 1475 1480 1483 1485 1488 1490 1492 1492 1492 1496 1506 1506 1507 1510 1513 1519 1524 1527 1530 1532 1534 1539 1545
1453 1455 1456 1458 1460 1462 1465 1466 1466 1471 1471 1475 1479 1482 1487 1485 1489 1488 1489 1495 1501 1504 1508 1510 1514 1519 1524 1529 1530 1531 1534 1539
1444 1447 1450 1452 1452 1454 1457 1459 1460 1463 1467 1472 1476 1478 1480 1481 1484 1482 1490 1488 1494 1499 1501 1505 1510 1513 1517 1524 1528 1530 1530 1534
1436 1439 1442 1447 1451 1453 1455 1456 1457 1462 1463 1466 1470 1473 1474 1479 1483 1484 1482 1473 1486 1492 1490 1496 1500 1508 1513 1518 1524 1528 1530 1530
1433 1434 1438 1439 1444 1447 1449 1452 1453 1456 1457 1460 1463 1468 1469 1473 1475 1480 1481 1474 1481 1495 1484 1489 1494 1499 1508 1514 1522 1528 1529 1528
1430 1432 1432 1435 1438 1440 1441 1445 1449 1451 1453 1455 1457 1460 1462 1466 1468 1469 1474 1476 1475 1479 1493 1500 1498 1496 1500 1507 1516 1525 1526 1527
1433 1432 1431 1431 1433 1433 1435 1438 1442 1445 1448 1453 1453 1453 1455 1459 1463 1465 1468 1471 1468 1472 1477 1489 1493 1497 1496 1499 1511 1522 1523 1524
1435 1436 1434 1430 1430 1430 1432 1432 1436 1438 1443 1447 1449 1450 1451 1451 1453 1458 1460 1462 1460 1462 1467 1469 1482 1495 1493 1493 1500 1507 1515 1520
1435 1433 1435 1438 1435 1431 1430 1431 1432 1434 1436 1440 1442 1444 1446 1448 1443 1450 1454 1455 1451 1454 1461 1466 1472 1478 1486 1488 1493 1490 1497 1514
1437 1437 1435 1435 1434 1433 1433 1434 1433 1432 1433 1433 1436 1436 1440 1443 1438 1441 1443 1446 1452 1448 1452 1457 1464 1474 1480 1479 1488 1486 1490 1493
1442 1438 1434 1433 1430 1430 1430 1429 1432 1429 1432 1431 1428 1430 1433 1436 1434 1434 1436 1441 1439 1446 1448 1452 1456 1464 1471 1473 1478 1478 1480 1485
1437 1435 1432 1428 1427 1426 1425 1425 1425 1426 1427 1425 1420 1423 1428 1432 1430 1428 1429 1433 1435 1437 1441 1446 1449 1453 1458 1467 1475 1479 1480 1481
1434 1428 1428 1425 1423 1420 1420 1419 1417 1416 1414 1419 1415 1417 1420 1425 1425 1426 1425 1428 1431 1434 1436 1440 1441 1447 1452 1460 1466 1471 1473 1479